Location: Unspecified
(0.0000°N, 0.0000°E)
Time: 07:15:38
(UTC+02:00)

Cosmos 1908 Rocket - Visible Passes

Search period start: 25 July 2014 00:00
Search period end: 04 August 2014 00:00
Orbit: 608 x 634 km, 82.5° (Epoch: 23 July)

Date Brightness Start Highest point End Pass type
(mag) Time Alt. Az. Time Alt. Az. Time Alt. Az.
25 Jul 5.1 20:26:07 10° SSW 20:30:21 42° W 20:34:34 10° NNW visible
26 Jul 7.1 07:00:54 10° ENE 07:01:40 10° E 07:02:25 10° E visible
26 Jul 6.6 20:45:10 10° SW 20:48:17 19° W 20:51:24 10° NW visible
27 Jul 6.1 07:16:04 10° NNE 07:19:36 25° E 07:23:07 10° SE visible
28 Jul 4.2 07:33:17 10° N 07:37:32 59° E 07:41:47 10° SSE visible
30 Jul 6.8 06:33:59 10° ENE 06:35:48 12° E 06:37:36 10° ESE visible
31 Jul 5.6 06:50:00 10° NNE 06:53:43 29° E 06:57:28 10° SSE visible
01 Aug 3.8 07:07:22 10° N 07:11:39 70° E 07:15:58 10° S visible
02 Aug 3.8 07:25:27 10° NNW 07:29:35 46° W 07:33:45 10° SSW visible
03 Aug 6.6 06:07:32 10° NE 06:09:55 15° E 06:12:19 10° ESE visible
